Alice Springs, Australia

5:58 PM ACST on December 10, 2019 (GMT +0930)
Alice Springs

Weather History for YBAS - August, 2019

Change the Weather History Date:

Tuesday, August 20, 2019

  Actual Average Record
Temperature  
Mean Temperature 48 °F -  
Max Temperature 62 °F 77 °F 89 °F (1998)
Min Temperature 34 °F 48 °F 30 °F (2002)
Degree Days  
Heating Degree Days 17    
Moisture  
Dew Point 22 °F    
Average Humidity 35    
Maximum Humidity 60    
Minimum Humidity 11    
Precipitation  
Precipitation 0.00 in 0.01 in - ()
Sea Level Pressure  
Sea Level Pressure 30.44 in    
Wind  
Wind Speed 9 mph ()    
Max Wind Speed 21 mph    
Max Gust Speed -    
Visibility 6.2 miles    
Events      
Averages and records for this station are not official NWS values.
T = Trace of Precipitation, MM = Missing Value Source: Averaged Metar Reports

Daily Weather History Graph

Daily Weather History Graph

Search for Another Location

Airport or City:

Astronomy

Aug. 20, 2019 Rise Set
Actual Time 6:56 AM ACST 6:19 PM ACST
Civil Twilight 6:33 AM ACST 6:42 PM ACST
Nautical Twilight 6:07 AM ACST 7:08 PM ACST
Astronomical Twilight 5:40 AM ACST 7:35 PM ACST
Moon 10:16 PM ACST (8/20) 9:45 AM ACST (8/20)
Length of Visible Light 12h 08m
Length of Day
11h 22m
Waning Gibbous, 82% of the Moon is Illuminated
Aug 20
Waning Gibbous
Aug 24
Last Quarter
Aug 30
New
Sep 6
First Quarter
Sep 14
Full

Hourly Weather History & Observations

Time (ACST) Temp. Windchill Dew Point Humidity Pressure Visibility Wind Dir Wind Speed Gust Speed Precip Events Conditions
12:00 AM 41 °F - 23 °F 35% 30.45 in - South 6.9 mph - -   Clear
12:00 AM 41.0 °F 36.4 °F 23.0 °F 49% 30.45 in 6.2 mi South 6.9 mph - N/A   Unknown
12:30 AM 40 °F - 22 °F 35% 30.45 in - South 6.9 mph - -  
12:30 AM 39.2 °F 34.2 °F 21.2 °F 49% 30.45 in 6.2 mi South 6.9 mph - N/A   Unknown
1:00 AM 39.2 °F 34.2 °F 23.0 °F 52% 30.45 in 6.2 mi South 6.9 mph - N/A   Unknown
1:30 AM 39.2 °F 34.2 °F 23.0 °F 52% 30.45 in 6.2 mi South 6.9 mph - N/A   Unknown
2:00 AM 39.2 °F 34.2 °F 23.0 °F 52% 30.45 in 6.2 mi South 6.9 mph - N/A   Unknown
2:30 AM 39 °F - 23 °F 40% 30.44 in - SSW 5.8 mph - -  
2:30 AM 39.2 °F 35.0 °F 23.0 °F 52% 30.45 in 6.2 mi SSW 5.8 mph - N/A   Unknown
3:00 AM 38 °F - 23 °F 42% 30.44 in - South 6.9 mph - -   Clear
3:00 AM 37.4 °F 32.1 °F 23.0 °F 56% 30.45 in 6.2 mi South 6.9 mph - N/A   Unknown
3:30 AM 37 °F - 23 °F 43% 30.44 in - South 6.9 mph - -  
3:30 AM 37.4 °F 32.1 °F 23.0 °F 56% 30.45 in 6.2 mi South 6.9 mph - N/A   Unknown
4:00 AM 35.6 °F 29.9 °F 23.0 °F 60% 30.45 in 6.2 mi South 6.9 mph - N/A   Unknown
4:30 AM 35.6 °F 29.9 °F 23.0 °F 60% 30.45 in 6.2 mi South 6.9 mph - N/A   Unknown
5:00 AM 35.6 °F 30.7 °F 23.0 °F 60% 30.45 in 6.2 mi SSE 5.8 mph - N/A   Unknown
5:30 AM 35 °F - 23 °F 49% 30.44 in - SSE 6.9 mph - -  
5:30 AM 35.6 °F 29.9 °F 23.0 °F 60% 30.45 in 6.2 mi SSE 6.9 mph - N/A   Unknown
6:00 AM 36 °F - 23 °F 47% 30.45 in - South 4.6 mph - -   Clear
6:00 AM 35.6 °F 31.7 °F 23.0 °F 60% 30.45 in 6.2 mi South 4.6 mph - N/A   Unknown
6:30 AM 35.6 °F 30.7 °F 23.0 °F 60% 30.48 in 6.2 mi South 5.8 mph - N/A   Unknown
7:00 AM 35.6 °F 30.7 °F 23.0 °F 60% 30.48 in 6.2 mi South 5.8 mph - N/A   Unknown
7:30 AM 35.6 °F 30.7 °F 23.0 °F 60% 30.48 in 6.2 mi South 5.8 mph - N/A   Unknown
8:00 AM 41.0 °F 36.4 °F 24.8 °F 53% 30.51 in 6.2 mi South 6.9 mph - N/A   Unknown
8:30 AM 46 °F - 26 °F 32% 30.51 in - SE 8.1 mph - -  
8:30 AM 46.4 °F 42.4 °F 24.8 °F 43% 30.51 in 6.2 mi SE 8.1 mph - N/A   Unknown
9:00 AM 48 °F - 25 °F 28% 30.51 in - ESE 12.7 mph - -   Clear
9:00 AM 48.2 °F - 24.8 °F 40% 30.51 in - ESE 12.7 mph - N/A   Clear
9:30 AM 51 °F - 26 °F 24% 30.51 in - ESE 16.1 mph - -  
9:30 AM 51.8 °F - 24.8 °F 35% 30.51 in 6.2 mi ESE 16.1 mph - N/A   Unknown
10:00 AM 51.8 °F - 24.8 °F 35% 30.54 in - ESE 20.7 mph - N/A   Clear
10:30 AM 53.6 °F - 24.8 °F 33% 30.54 in - ESE 16.1 mph - N/A   Clear
11:00 AM 55.4 °F - 24.8 °F 31% 30.51 in - ESE 18.4 mph - N/A   Clear
11:30 AM 56 °F - 24 °F 18% 30.49 in - ESE 18.4 mph - -  
11:30 AM 55.4 °F - 24.8 °F 31% 30.51 in - ESE 18.4 mph - N/A   Clear
12:00 PM 57 °F - 24 °F 17% 30.48 in - ESE 18.4 mph - -   Clear
12:00 PM 57.2 °F - 24.8 °F 29% 30.48 in - ESE 18.4 mph - N/A   Clear
12:30 PM 57 °F - 23 °F 16% 30.46 in - ESE 16.1 mph - -  
12:30 PM 57.2 °F - 23.0 °F 27% 30.48 in - ESE 16.1 mph - N/A   Clear
1:00 PM 59.0 °F - 23.0 °F 25% 30.45 in 6.2 mi ESE 16.1 mph - N/A   Unknown
1:30 PM 59.0 °F - 23.0 °F 25% 30.42 in 6.2 mi SE 17.3 mph - N/A   Unknown
2:00 PM 60.8 °F - 23.0 °F 23% 30.42 in 6.2 mi ESE 15.0 mph - N/A   Unknown
2:30 PM 60 °F - 22 °F 13% 30.40 in - ESE 15.0 mph - -  
2:30 PM 59.0 °F - 21.2 °F 23% 30.39 in 6.2 mi ESE 15.0 mph - N/A   Unknown
3:00 PM 61 °F - 21 °F 11% 30.38 in - SE 16.1 mph - -   Clear
3:00 PM 60.8 °F - 21.2 °F 22% 30.39 in 6.2 mi SE 16.1 mph - N/A   Unknown
3:30 PM 62 °F - 23 °F 12% 30.38 in - SE 17.3 mph - -  
3:30 PM 62.6 °F - 23.0 °F 22% 30.39 in 6.2 mi SE 17.3 mph - N/A   Unknown
4:00 PM 62.6 °F - 21.2 °F 20% 30.39 in 6.2 mi ESE 18.4 mph - N/A   Unknown
4:30 PM 60.8 °F - 21.2 °F 22% 30.36 in 6.2 mi SE 17.3 mph - N/A   Unknown
5:00 PM 60.8 °F - 19.4 °F 20% 30.36 in 6.2 mi SE 17.3 mph - N/A   Unknown
5:30 PM 60 °F - 21 °F 12% 30.37 in - SE 16.1 mph - -  
5:30 PM 60.8 °F - 21.2 °F 22% 30.39 in 6.2 mi SE 16.1 mph - N/A   Unknown
6:00 PM 58 °F - 20 °F 12% 30.38 in - ESE 15.0 mph - -   Clear
6:00 PM 59.0 °F - 19.4 °F 22% 30.39 in 6.2 mi ESE 15.0 mph - N/A   Unknown
6:30 PM 57 °F - 20 °F 13% 30.38 in - SE 12.7 mph - -  
6:30 PM 57.2 °F - 19.4 °F 23% 30.39 in 6.2 mi SE 12.7 mph - N/A   Unknown
7:00 PM 55.4 °F - 19.4 °F 25% 30.39 in 6.2 mi SE 9.2 mph - N/A   Unknown
7:30 PM 53.6 °F - 19.4 °F 26% 30.42 in 6.2 mi SE 8.1 mph - N/A   Unknown
8:00 PM 51.8 °F - 19.4 °F 28% 30.42 in 6.2 mi SE 6.9 mph - N/A   Unknown
8:30 PM 49 °F - 20 °F 19% 30.41 in - SE 6.9 mph - -  
8:30 PM 48.2 °F - 19.4 °F 32% 30.42 in 6.2 mi SE 6.9 mph - N/A   Unknown
9:00 PM 48 °F - 20 °F 21% 30.41 in - SE 6.9 mph - -   Clear
9:30 PM 46.4 °F 42.9 °F 19.4 °F 34% 30.42 in 6.2 mi SE 6.9 mph - N/A   Unknown
10:00 PM 44.6 °F 40.7 °F 19.4 °F 37% 30.42 in 6.2 mi SSE 6.9 mph - N/A   Unknown
10:30 PM 44.6 °F 40.2 °F 17.6 °F 34% 30.42 in 6.2 mi SSE 8.1 mph - N/A   Unknown
11:00 PM 42.8 °F 38.6 °F 19.4 °F 39% 30.42 in 6.2 mi SSE 6.9 mph - N/A   Unknown
11:30 PM 42 °F - 18 °F 25% 30.41 in - SSE 5.8 mph - -  
11:30 PM 41.0 °F 37.1 °F 17.6 °F 39% 30.42 in 6.2 mi SSE 5.8 mph - N/A   Unknown